Theta_e
357 358 358 359 358 358 359 358 361 366 366 358 357 362 360 361 360 361 362 362 365 361 359 363 362 358 358 359 355 351 353 357 357 349 344 353 357 358 359 354 352 351 350 350 353 354 353 354 352 353 353 352 352 353 353 353 353 353 353 353 353 353 353 353 353 353 353 352 352 352 352 353 353 353 353 352 351 349 348 347 349 350 351 352 352 352 352 351 350 349 349 348 347 345 343 342 343
357 359 358 358 355 359 365 360 362 365 361 356 357 362 360 362 362 362 364 362 365 361 359 363 362 359 356 355 355 354 358 355 351 351 352 357 358 359 358 353 352 350 348 350 353 354 353 354 352 353 352 353 353 352 353 352 353 352 352 352 352 352 352 352 352 352 352 352 352 351 351 352 351 352 352 352 352 352 351 350 351 351 350 351 351 352 352 352 351 351 350 350 350 348 346 343 342
357 360 357 357 356 358 366 363 363 360 356 355 357 363 362 364 366 361 361 360 361 361 362 364 363 362 361 359 359 360 361 357 352 353 355 359 360 359 357 353 351 348 347 349 353 353 353 354 353 353 352 353 353 352 352 352 352 352 352 352 351 352 352 352 352 352 352 352 352 351 351 351 351 352 352 352 352 352 352 351 352 351 350 350 351 351 351 351 351 352 351 351 351 349 348 345 342
359 361 356 357 362 362 369 370 366 359 354 354 356 361 361 363 363 359 360 361 360 362 366 368 366 361 361 363 362 361 361 359 355 356 357 358 359 358 357 353 348 346 347 350 352 352 353 353 353 352 352 352 352 352 352 352 352 350 350 349 349 350 351 350 350 350 351 351 350 350 350 351 351 351 351 352 351 352 352 351 352 352 352 351 351 351 351 351 351 351 350 349 349 347 344 343 342
361 360 355 357 366 368 372 372 366 360 356 357 358 359 358 360 362 359 359 359 361 366 369 370 367 360 362 365 365 365 364 362 356 355 358 358 358 358 356 349 345 347 348 350 351 352 353 353 352 352 352 352 351 351 350 351 349 348 348 347 348 349 349 349 348 349 350 351 350 350 350 350 350 351 351 351 351 351 350 350 350 350 350 350 349 349 349 347 347 346 343 342 343 341 339 339 338
360 360 356 358 364 364 369 365 360 360 361 363 363 362 359 360 363 361 359 359 362 365 365 366 364 363 364 363 364 362 361 362 357 355 357 358 358 357 352 346 348 351 349 349 350 351 353 353 352 352 353 352 352 351 350 351 350 349 348 349 351 349 349 350 350 350 350 351 351 351 351 349 350 350 349 350 350 348 348 348 346 347 346 347 345 343 345 342 341 339 336 336 337 335 335 335 334
359 362 360 363 366 365 367 360 359 362 362 365 364 365 364 364 366 365 366 365 364 364 362 364 363 365 365 360 362 359 354 356 354 355 357 357 358 354 350 349 351 349 346 347 348 351 353 353 353 352 353 353 352 352 352 352 351 349 349 350 351 349 349 350 351 351 351 351 351 352 351 349 349 348 347 348 349 347 349 349 347 349 349 349 347 343 344 343 343 342 340 340 340 338 337 336 335
359 365 366 370 374 370 366 359 361 364 361 363 363 364 364 365 368 369 370 368 367 366 364 364 362 364 365 363 364 358 351 352 352 355 358 357 356 354 353 353 350 344 343 345 347 352 353 352 352 352 352 352 352 352 352 351 350 348 350 352 351 351 351 351 351 350 351 350 348 350 348 350 350 348 349 348 349 349 349 349 348 350 350 350 348 345 346 347 348 348 346 346 345 345 345 342 340
361 366 367 370 372 365 361 361 362 363 363 363 364 365 364 365 367 369 368 368 368 366 366 367 364 364 364 364 365 359 353 352 353 355 356 356 355 356 356 354 349 343 341 343 348 352 352 351 351 352 351 351 352 352 351 350 350 347 348 352 352 351 350 349 350 349 350 349 346 347 348 350 349 347 350 347 346 347 346 346 346 348 349 349 349 348 348 347 348 348 348 346 345 346 345 343 339
365 364 367 372 367 358 357 361 362 363 365 365 367 366 364 364 366 368 367 366 366 365 363 363 363 364 365 366 363 358 355 353 351 353 354 356 355 355 356 354 350 342 338 340 348 351 351 350 350 351 350 349 351 351 350 351 351 348 348 349 350 348 348 348 349 349 349 349 348 349 349 349 348 348 349 347 346 347 346 347 346 348 349 349 349 350 349 349 348 348 349 348 346 346 344 343 341
368 363 366 375 363 354 356 358 362 365 365 366 368 364 362 365 365 367 366 365 366 366 361 361 362 363 367 369 366 358 354 353 351 350 352 354 354 354 355 354 351 341 332 334 344 349 350 349 350 350 350 349 350 350 351 352 351 350 349 348 348 349 350 350 349 350 348 348 349 349 350 349 349 349 349 349 350 350 349 348 347 347 349 348 349 350 350 351 351 350 350 350 350 349 348 348 347
372 368 371 375 359 355 359 359 363 365 367 369 369 364 363 364 364 366 367 367 367 369 365 363 363 363 368 369 367 357 352 354 351 349 350 352 353 353 352 352 349 337 327 329 336 343 345 346 349 350 349 349 350 350 350 350 350 350 350 348 349 350 351 350 349 349 348 348 350 350 351 351 351 351 350 352 351 350 349 348 348 348 348 349 348 349 350 350 350 351 350 350 351 350 351 350 350
371 373 376 372 359 360 361 361 364 365 370 372 368 365 366 366 365 366 368 368 368 370 365 362 363 365 369 367 364 360 357 355 351 349 349 351 353 353 352 351 347 335 330 334 334 337 341 344 347 349 349 350 349 349 348 348 349 349 348 347 349 349 348 350 349 350 350 351 351 352 352 352 352 352 351 352 350 348 350 349 349 349 349 349 348 349 349 349 349 350 350 349 349 350 351 351 351
368 371 372 365 358 364 362 362 364 363 368 370 367 364 363 366 367 366 367 368 367 367 362 359 361 363 366 363 363 365 361 353 351 350 348 349 351 353 353 351 348 338 332 336 338 339 344 347 347 347 350 349 349 349 348 349 348 348 348 349 350 350 350 351 352 353 352 352 352 351 351 351 351 351 351 352 350 350 351 350 350 351 350 349 349 349 349 349 349 348 349 349 350 350 351 351 351
365 364 364 361 357 362 361 362 365 363 364 366 368 365 362 363 364 365 364 365 363 360 360 358 357 361 363 360 362 364 358 352 351 351 350 349 349 353 354 353 350 341 333 335 338 339 342 346 345 346 350 351 351 349 349 350 350 350 351 352 353 352 353 352 352 352 351 351 351 349 350 351 351 351 351 351 350 350 350 349 350 350 349 349 349 350 350 348 349 349 348 348 348 349 349 349 349
364 359 364 365 355 356 361 363 365 364 364 364 365 363 363 363 362 365 362 362 362 358 362 363 357 361 362 359 359 358 355 353 352 351 351 351 351 354 354 354 352 346 340 340 341 341 340 345 345 346 350 351 352 350 350 353 353 353 354 354 354 353 353 351 348 347 349 351 350 350 350 350 350 351 351 350 349 349 350 350 350 350 349 349 348 349 350 349 350 350 349 349 348 347 347 346 347
361 355 362 362 353 355 363 367 365 364 364 363 362 361 364 363 360 363 359 359 363 360 362 364 361 359 360 360 356 354 354 353 353 352 351 351 351 352 351 352 352 351 350 349 349 348 346 347 348 348 350 350 351 351 351 354 355 355 355 355 354 353 352 349 349 348 351 353 351 350 350 351 351 351 351 351 351 350 351 351 351 351 350 350 350 349 350 350 350 349 349 350 350 348 348 348 348
355 355 358 353 356 361 364 370 367 364 364 362 361 360 362 363 361 359 358 360 362 363 362 362 363 360 357 356 354 354 355 354 355 354 351 351 350 350 351 350 350 351 353 353 353 354 353 351 351 351 353 353 353 354 354 355 356 355 354 354 354 353 352 351 352 351 352 352 351 351 351 352 352 352 352 352 352 351 351 351 352 351 350 350 350 350 350 350 350 350 350 350 351 350 348 349 349
349 357 358 350 359 362 360 366 362 361 362 361 360 358 359 361 360 358 362 364 363 365 364 362 363 362 358 356 355 356 355 355 356 354 353 352 350 350 351 351 350 350 350 352 352 354 355 354 354 355 356 356 355 356 356 355 354 353 353 353 353 352 352 353 353 352 352 352 352 352 352 352 352 352 352 351 352 352 350 351 352 351 350 351 350 351 350 350 350 350 350 351 351 351 350 350 349
343 353 356 349 354 357 357 360 359 360 359 358 358 356 359 359 357 357 362 365 365 366 364 362 363 362 361 360 357 356 355 355 354 353 355 352 351 350 350 351 350 350 350 350 350 352 355 355 356 357 357 357 356 355 355 354 354 354 354 353 352 352 352 352 352 352 352 352 352 353 353 352 352 352 352 351 351 351 349 349 351 351 350 349 350 349 348 347 348 348 349 350 350 350 350 350 350
343 350 356 350 350 356 358 356 357 356 355 358 357 356 359 357 355 357 360 364 365 364 362 362 362 361 362 361 358 356 354 353 352 351 354 353 351 351 351 351 351 351 351 350 351 351 353 354 355 355 354 354 353 352 353 353 353 352 352 352 352 351 351 352 351 352 352 352 353 352 352 351 350 349 349 347 346 346 346 345 345 345 344 344 345 345 345 344 344 344 345 345 345 346 347 347 347
344 346 351 348 348 353 354 353 354 354 356 357 356 358 358 355 355 356 358 366 367 361 361 361 360 361 360 360 358 355 352 352 353 352 354 354 352 352 352 353 353 353 353 353 352 351 352 352 352 352 351 351 351 349 351 353 352 351 351 352 352 351 351 351 350 351 352 351 351 350 349 348 346 345 345 343 342 343 343 342 340 339 340 341 341 341 342 341 341 341 342 343 344 344 343 343 344
344 343 344 347 348 350 348 348 349 351 355 356 356 356 354 355 358 356 355 362 363 358 360 361 358 358 357 357 357 356 356 353 353 353 355 356 355 354 353 353 355 355 354 353 352 352 352 352 351 351 350 349 349 349 351 352 352 351 351 352 351 351 352 351 351 351 350 349 348 347 346 345 345 344 344 343 343 343 341 340 339 338 338 338 337 338 339 339 340 341 341 342 343 342 340 340 341
344 344 345 348 349 349 351 352 352 354 354 353 354 353 353 356 356 356 356 357 357 355 358 358 356 355 355 356 357 357 356 355 355 355 356 357 357 357 355 354 355 355 355 354 353 352 352 352 351 351 352 350 350 351 352 352 351 351 351 351 351 352 352 352 351 350 349 348 347 345 344 344 344 342 342 343 343 341 339 338 338 337 336 334 335 338 339 340 340 340 339 339 338 338 338 338 339
344 346 346 347 347 351 356 360 361 360 356 353 353 352 353 355 355 357 358 356 354 354 356 356 356 356 357 359 359 358 355 356 357 356 356 357 357 357 356 355 356 355 355 355 354 353 353 353 353 352 353 352 351 352 352 352 351 351 350 351 352 352 352 352 350 349 347 346 346 344 343 343 342 340 340 341 341 339 338 337 336 336 333 333 336 339 339 339 339 338 337 337 337 337 337 337 337
344 345 345 346 347 349 354 358 359 356 352 355 356 357 355 351 354 358 357 355 353 353 355 355 356 357 358 360 360 358 357 358 358 357 356 357 357 356 356 355 356 355 355 355 354 353 353 353 354 352 352 353 352 351 351 351 351 350 350 351 352 351 351 352 350 347 346 345 346 344 341 341 341 339 339 339 339 338 337 336 335 335 332 334 337 338 337 336 336 336 337 336 336 336 336 336 336
343 344 343 344 345 348 351 351 353 352 350 354 358 360 357 351 357 361 356 354 353 353 355 354 354 356 356 359 360 357 357 358 357 357 356 357 357 354 354 354 353 354 354 355 354 352 353 353 353 352 352 352 351 351 350 350 351 350 351 351 351 351 351 350 348 346 346 346 345 342 339 339 339 338 338 338 338 337 336 335 334 335 334 334 337 337 335 334 334 335 336 335 335 336 336 337 337
342 343 345 345 344 346 349 351 351 351 350 351 357 360 356 351 359 361 354 354 354 354 356 354 354 356 356 360 360 357 357 357 357 358 357 358 357 353 353 353 353 354 354 354 353 352 351 352 353 353 352 351 350 351 351 350 351 350 350 351 351 351 350 347 346 345 345 344 343 341 338 336 335 335 336 337 336 335 334 333 333 334 334 335 336 336 334 332 333 333 332 332 334 336 336 337 338
342 345 345 344 346 347 346 350 353 352 352 351 354 354 355 359 359 356 353 354 355 354 357 356 356 357 358 359 359 359 358 356 357 357 357 358 357 354 352 352 352 353 354 354 352 351 350 351 352 353 352 351 351 351 351 351 350 350 350 350 350 350 347 345 346 345 344 343 342 339 336 333 331 333 335 335 335 334 333 332 332 332 332 334 334 334 333 332 332 332 328 329 333 335 337 338 337
346 347 349 348 345 348 348 349 355 355 353 356 354 348 355 366 358 353 353 353 355 355 357 356 356 357 357 358 358 359 356 354 356 356 357 358 356 354 351 350 351 351 353 353 352 352 350 351 353 353 352 351 351 351 351 351 350 350 350 350 350 348 346 346 345 344 343 341 339 335 332 331 330 332 334 334 334 333 332 331 332 331 330 332 333 332 332 331 332 332 328 328 333 336 337 337 335
352 347 357 362 339 338 351 351 356 355 350 358 359 349 357 365 354 352 354 353 354 355 355 354 354 355 356 357 357 357 355 354 355 355 355 356 356 354 350 351 351 350 353 354 353 352 351 352 353 353 352 351 351 351 351 351 351 350 351 351 349 347 346 345 344 343 341 338 334 333 332 332 331 331 332 332 332 331 331 331 330 330 330 330 331 330 330 330 332 331 329 331 335 336 337 336 335
354 338 341 354 337 336 351 350 355 355 351 356 356 351 356 359 351 351 354 354 354 353 353 352 352 354 355 356 356 355 355 353 353 354 354 355 354 352 353 354 352 351 353 353 352 351 352 353 353 353 352 351 350 349 350 350 351 351 350 349 347 347 346 344 343 340 338 335 333 333 333 333 333 332 330 330 330 328 328 328 328 329 329 329 330 328 329 331 331 330 331 334 335 336 335 335 335
353 346 336 340 338 339 345 347 353 353 352 353 355 357 357 356 351 348 352 353 351 351 351 351 351 352 353 354 354 353 354 354 354 355 354 355 354 354 355 355 353 352 353 353 352 352 353 354 353 353 351 351 349 349 350 350 350 350 348 346 346 346 344 342 341 338 336 334 332 333 333 332 332 331 330 329 327 324 324 325 325 326 327 328 328 327 329 331 331 331 332 333 335 336 335 335 335
338 346 341 339 341 339 338 346 352 350 352 354 357 362 356 353 352 347 348 349 348 349 349 350 350 349 352 353 350 352 355 356 357 356 355 355 355 356 356 355 353 354 355 354 352 352 354 354 353 352 351 350 349 349 350 348 347 346 345 345 345 344 343 341 339 337 336 333 332 332 331 331 330 328 326 323 321 322 323 323 323 324 326 327 326 326 328 330 331 332 331 332 334 334 333 333 334
331 332 332 331 336 338 337 343 349 350 352 354 356 358 357 353 350 348 347 346 347 349 349 349 349 349 350 349 350 354 355 355 356 355 355 355 356 356 356 355 355 355 356 355 353 353 353 353 352 352 351 350 349 349 348 345 344 344 344 344 344 343 341 339 337 336 335 333 332 331 330 329 327 325 323 320 320 323 323 322 322 323 324 325 325 325 328 330 331 331 330 332 334 332 330 332 332
338 336 333 328 328 333 341 345 348 350 352 356 355 355 357 353 347 348 348 345 346 348 349 349 348 349 350 351 352 353 353 353 354 354 355 356 356 356 356 356 356 355 356 355 354 354 353 352 351 351 350 349 348 348 347 345 344 344 344 343 342 341 339 337 336 335 333 332 331 330 329 327 324 324 324 322 322 322 322 320 321 322 323 324 325 326 328 330 331 331 330 331 332 329 328 328 330
340 338 334 332 326 327 340 346 347 350 350 352 355 355 356 351 346 348 346 346 349 348 348 349 349 350 352 355 354 353 355 353 351 353 355 356 356 356 356 356 356 355 355 355 354 354 353 351 350 350 349 349 348 348 347 346 345 344 343 342 341 339 338 337 336 334 332 331 329 328 326 325 324 324 324 323 322 321 319 319 321 322 324 325 325 327 329 329 330 330 329 328 329 328 326 324 327
337 335 332 330 327 327 336 344 346 348 347 350 355 355 353 350 347 348 346 348 351 351 350 349 350 350 351 355 355 357 359 355 354 354 354 356 356 356 356 356 355 355 354 354 354 354 352 350 349 349 349 348 349 348 347 347 346 344 342 342 340 338 338 337 335 333 331 330 329 327 325 325 325 325 323 322 321 319 317 318 321 324 325 326 327 328 329 329 328 328 327 326 326 326 325 323 324
334 334 331 325 328 332 335 344 349 344 346 352 354 353 351 351 350 348 347 350 351 351 350 350 351 351 351 354 356 358 358 358 360 357 354 356 356 355 355 355 355 355 355 354 354 354 352 350 350 350 350 349 349 348 346 346 345 343 342 341 340 338 337 336 334 332 331 330 328 325 324 324 324 324 322 320 319 318 318 320 323 324 325 327 328 329 328 327 326 326 325 325 325 324 323 322 323
331 330 325 322 330 329 325 337 348 344 348 355 356 355 354 355 352 350 349 350 353 351 350 351 350 350 351 352 354 355 355 359 362 358 355 355 355 355 355 354 355 354 355 354 353 354 352 352 351 351 350 348 348 347 346 345 344 343 342 340 339 338 337 335 333 332 331 330 327 324 323 322 322 321 320 319 319 318 320 323 324 326 326 327 328 328 327 325 324 324 323 322 323 324 323 321 323
329 330 325 323 330 329 327 338 343 340 345 352 352 346 348 358 355 352 351 351 353 352 352 352 351 349 350 351 352 353 355 358 360 358 356 355 354 355 355 354 355 354 354 354 353 353 352 352 351 350 348 346 346 346 344 343 342 341 341 340 339 337 336 335 334 332 331 330 326 322 321 320 320 320 319 318 318 320 323 324 325 326 327 327 326 326 326 324 322 321 321 321 322 323 322 320 321
322 328 330 328 330 330 332 338 337 332 334 346 346 332 339 362 360 352 352 354 355 352 353 353 351 350 349 350 351 353 357 358 357 357 355 355 354 354 354 354 355 354 354 354 353 353 352 351 350 349 347 345 344 343 342 340 340 340 340 339 337 336 336 335 334 332 331 331 327 322 320 320 320 319 318 318 320 322 323 324 325 326 326 326 324 323 323 322 321 320 320 320 321 322 322 320 320
316 327 334 331 333 332 331 334 330 324 326 343 345 332 335 347 352 358 358 358 358 352 353 354 352 351 349 349 351 353 357 359 358 357 355 354 354 353 353 353 354 354 354 353 353 352 352 350 349 348 346 345 344 343 343 342 342 341 338 337 335 335 335 334 331 329 327 327 325 322 320 320 319 319 317 319 322 323 323 324 325 326 325 325 324 322 321 320 320 320 320 320 321 321 321 320 319
317 330 332 331 333 330 330 328 324 325 332 341 342 340 338 337 348 366 361 357 360 354 354 354 351 351 349 349 350 351 355 358 359 357 356 354 353 352 352 353 354 354 354 353 352 352 351 350 348 348 346 345 343 341 341 343 342 340 337 336 334 333 333 331 328 326 324 324 322 321 320 319 319 319 320 321 322 322 323 325 326 325 324 324 324 322 321 320 319 320 319 319 319 320 321 320 318
324 332 330 331 331 331 333 325 322 327 328 328 334 340 340 340 356 369 359 357 361 359 356 353 351 351 350 350 349 350 352 357 358 356 356 353 352 352 352 352 353 354 353 352 352 351 350 350 348 347 345 342 340 338 339 340 339 337 337 336 333 332 331 329 327 325 324 323 321 320 320 319 318 319 321 321 321 323 324 325 325 324 322 322 323 321 320 319 319 318 318 318 319 318 319 318 317
328 330 330 331 331 331 330 326 325 322 318 319 325 330 335 341 353 359 355 354 357 360 357 352 352 349 349 351 349 349 350 355 358 356 354 352 351 352 351 352 353 353 353 352 352 351 349 348 346 344 342 340 338 338 338 337 336 335 335 334 332 331 329 327 325 324 323 322 321 320 319 318 318 320 321 321 323 324 323 323 323 322 321 321 321 319 318 317 316 316 316 317 318 318 318 317 317
329 332 332 329 333 336 339 344 333 316 318 325 323 325 336 339 342 347 352 353 352 356 356 353 353 350 350 351 349 349 350 353 357 355 353 351 350 351 351 352 352 352 352 351 350 350 348 346 343 341 340 339 339 338 336 336 335 334 333 333 332 329 327 325 324 322 322 321 320 319 318 318 319 321 321 322 324 323 321 321 321 319 320 321 319 317 316 314 314 315 315 316 318 317 317 317 317
328 333 329 321 328 337 341 346 334 315 320 333 328 325 329 328 335 343 349 355 352 351 354 355 355 352 350 351 350 350 350 353 355 353 351 350 349 350 350 351 351 351 351 350 350 348 345 342 340 340 339 339 338 336 335 334 332 331 331 331 330 327 325 324 323 321 320 320 318 318 318 319 319 321 322 323 323 321 320 319 317 317 318 319 318 316 314 313 313 315 316 317 317 317 317 317 317
327 329 323 316 317 321 324 328 326 319 321 328 327 325 325 328 341 347 346 352 353 350 352 353 355 354 351 350 352 351 350 353 354 352 350 349 349 350 350 350 350 351 350 350 348 345 341 340 339 339 338 336 334 333 333 332 331 330 329 329 327 325 324 323 321 320 319 318 317 318 319 319 319 319 321 321 320 319 318 317 315 315 318 318 317 315 314 314 314 315 316 317 317 317 316 317 317
325 323 318 315 315 313 317 322 320 320 321 322 324 327 329 335 346 352 348 347 351 349 348 350 354 354 351 351 353 351 351 353 353 352 350 350 350 349 349 350 349 350 349 348 345 341 339 339 338 337 336 335 333 332 332 331 329 329 328 327 326 324 323 322 320 319 318 317 316 318 319 319 319 320 320 319 318 317 318 317 316 316 317 317 317 315 314 314 315 315 315 315 316 316 316 316 316
326 329 323 317 317 315 317 320 318 317 318 318 320 323 327 333 342 351 347 342 350 351 349 356 359 355 352 353 353 351 352 352 351 351 350 349 350 349 349 349 349 349 348 345 341 339 339 338 337 336 335 334 333 331 330 329 328 327 326 325 324 323 322 320 319 318 317 316 316 318 319 319 320 320 319 318 317 317 317 318 317 316 316 316 316 315 315 315 315 315 314 314 314 316 315 314 314
323 330 321 313 320 320 315 319 319 317 314 316 322 327 335 346 353 353 347 351 366 364 361 366 362 356 354 354 353 352 351 351 351 350 350 349 349 349 349 348 348 347 344 341 339 338 338 337 336 335 333 331 330 330 329 328 327 326 326 324 323 322 321 319 318 317 316 316 318 319 318 319 320 319 318 318 318 317 317 318 318 317 316 315 315 316 315 315 315 315 315 314 314 315 314 313 313
322 321 316 317 327 323 313 314 317 314 311 316 326 333 339 348 356 358 361 370 375 369 364 362 357 355 355 354 353 352 351 350 350 350 349 349 349 349 348 347 346 344 341 339 338 338 337 336 334 332 331 330 328 327 328 328 328 325 324 323 322 321 319 318 317 316 316 317 319 318 318 318 319 318 318 318 317 317 317 317 318 318 317 315 315 315 315 315 315 315 316 315 314 314 313 313 313
322 315 318 323 325 323 318 314 314 314 313 318 327 333 333 333 343 360 373 376 372 365 361 358 356 356 355 354 353 352 352 351 350 349 348 349 349 348 347 346 344 341 339 339 338 336 336 335 333 331 331 329 326 324 324 325 325 323 322 321 320 319 318 316 315 316 317 318 318 318 317 317 318 318 318 317 317 317 317 316 317 318 318 316 316 316 315 315 314 315 315 315 315 314 314 313 313
323 319 325 324 315 315 316 312 313 313 314 321 328 333 334 333 341 355 365 372 372 365 361 359 357 357 355 354 354 353 353 351 350 349 348 348 347 346 346 345 342 339 338 338 337 336 335 333 331 330 328 327 325 324 323 322 322 321 320 319 318 317 317 317 316 316 317 318 318 318 316 317 317 317 317 317 317 317 317 317 317 318 318 317 316 316 316 315 315 315 315 315 315 315 314 314 314
326 323 325 326 319 316 314 314 315 312 315 322 327 330 337 347 358 359 360 370 371 364 363 361 358 358 356 354 354 354 353 352 350 349 348 347 346 345 345 342 339 338 338 337 336 335 333 332 330 328 326 325 324 324 324 323 323 322 320 318 318 318 318 318 316 316 317 318 318 317 316 316 317 317 317 318 318 318 318 318 318 318 318 317 316 316 316 316 316 315 314 315 315 314 314 314 313
321 318 317 318 318 318 315 314 314 313 316 323 329 335 346 364 374 369 365 368 366 364 364 361 359 358 355 353 354 354 353 351 349 348 347 346 344 344 343 340 338 338 337 337 335 334 332 331 329 327 326 325 324 323 323 322 322 322 321 318 318 318 318 318 317 316 317 317 317 317 316 317 317 318 318 317 317 317 316 317 317 317 317 317 317 316 317 317 315 314 314 314 313 313 314 314 313
321 319 317 315 316 315 312 311 315 315 313 318 329 337 350 370 376 373 369 365 365 365 362 361 361 357 355 354 353 353 352 350 348 347 346 345 344 342 340 339 338 337 337 336 335 333 331 330 328 326 326 325 323 323 323 322 320 319 319 318 316 316 317 317 317 316 317 317 317 317 316 317 317 318 318 317 316 315 314 314 315 316 317 318 317 316 317 316 314 314 314 313 313 313 313 314 313
Wind_Speed
14 14 12 10 11 10 5 1 1 1 1 3 1 0 2 2 1 1 2 1 0 1 3 2 2 3 5 5 4 5 6 1 3 3 2 6 21 24 18 23 25 23 25 24 23 22 20 20 18 18 19 19 19 19 18 18 18 17 16 15 15 14 13 13 12 11 11 11 11 11 11 10 10 9 8 8 7 8 8 8 8 7 7 7 7 7 7 7 7 7 7 7 7 7 7 7 7
16 15 12 11 9 4 2 2 1 2 2 2 1 1 1 1 1 2 4 3 1 1 2 3 3 5 6 7 3 6 9 8 4 6 6 17 23 20 22 25 25 25 25 24 24 23 22 21 19 19 19 19 19 19 18 18 18 18 17 16 15 14 13 12 12 11 10 10 10 10 10 10 10 9 9 9 8 7 7 7 7 7 7 6 6 6 6 6 7 7 7 7 7 7 7 8 8
17 16 15 12 5 2 1 2 2 1 3 2 1 2 2 2 4 5 4 4 3 3 4 3 4 4 1 6 5 6 5 7 8 9 9 21 18 17 25 23 24 25 24 25 24 23 22 21 20 20 19 19 18 18 18 18 17 17 17 16 16 15 14 13 12 12 11 11 11 11 11 10 10 10 9 9 9 8 8 8 8 8 8 7 7 7 7 7 7 7 7 8 7 7 7 8 8
17 15 15 9 2 2 1 2 1 1 2 1 1 2 3 2 5 5 3 2 3 3 2 2 4 1 2 9 4 4 4 3 8 9 8 16 18 21 25 22 24 24 22 24 23 24 22 21 20 19 20 19 18 18 18 17 17 16 16 15 16 15 14 13 13 12 11 11 10 10 11 10 10 10 10 9 9 9 9 9 9 9 9 9 9 9 9 9 9 9 9 9 8 8 8 8 8
16 14 10 4 1 1 2 2 1 2 2 0 2 1 3 1 3 5 4 2 4 3 2 1 3 1 3 6 0 2 3 1 5 9 11 16 23 26 23 23 24 22 21 22 24 24 22 21 20 19 20 19 18 18 17 17 16 16 16 15 15 14 14 13 12 12 11 11 10 10 10 10 10 10 10 9 9 9 9 10 10 10 10 10 11 11 11 11 11 11 11 10 10 9 9 9 8
16 13 4 4 1 0 2 2 3 3 3 2 2 3 4 4 1 4 5 4 1 2 4 3 3 3 4 3 1 3 1 1 2 10 18 21 25 24 23 23 21 19 21 23 24 23 22 20 19 20 20 19 18 17 17 16 16 15 15 15 14 14 14 13 12 11 11 11 10 10 9 9 10 10 10 9 9 9 9 9 9 9 10 10 10 11 11 11 11 11 11 11 11 10 10 9 9
15 8 1 2 1 1 3 4 4 3 3 3 2 4 5 4 1 2 2 3 5 6 5 4 2 5 4 0 2 4 7 6 3 13 22 24 26 24 23 22 20 19 21 23 23 22 21 19 19 19 20 20 19 18 17 16 16 15 15 15 14 14 14 13 12 11 11 10 10 10 9 8 8 8 8 8 8 8 8 8 8 9 9 10 10 11 11 11 11 11 11 11 11 10 10 10 10
12 4 0 2 2 2 3 4 4 3 3 3 0 3 4 2 1 2 3 3 4 4 4 3 2 6 2 2 3 3 11 12 10 21 26 27 26 24 24 22 20 20 20 22 22 20 18 18 18 18 19 19 18 18 17 16 15 15 16 15 14 13 13 13 12 12 11 10 10 10 8 8 8 7 7 7 7 7 7 8 8 9 10 11 12 11 11 11 11 11 11 11 10 10 10 10 11
6 1 1 2 2 3 3 3 4 3 2 3 2 2 1 1 2 2 5 5 3 3 3 1 2 5 2 4 4 2 10 14 12 20 27 28 23 22 23 22 21 20 21 21 21 19 18 17 17 17 17 17 18 17 16 15 15 15 15 14 14 13 13 12 12 11 10 10 8 8 8 7 7 7 7 7 6 6 7 8 9 10 11 12 12 12 12 12 12 12 12 12 11 11 11 11 11
2 1 1 2 2 5 4 3 2 2 3 3 2 1 1 1 2 3 5 5 4 4 3 3 6 6 5 4 3 1 7 15 17 19 23 28 25 23 21 20 20 20 22 21 21 20 18 17 17 17 16 16 17 16 15 14 14 13 13 13 12 12 11 10 10 9 9 8 7 7 7 7 7 6 7 7 7 8 9 10 12 13 14 14 13 14 14 14 14 15 15 14 14 13 13 12 12
1 0 1 2 2 4 4 2 1 2 4 3 2 1 1 1 3 3 4 4 2 4 3 6 7 5 5 3 0 1 7 17 23 24 24 28 27 25 23 21 19 19 21 21 21 20 18 17 16 16 15 15 15 15 15 14 13 12 12 12 11 10 10 9 9 8 8 7 7 7 7 7 7 7 8 9 9 11 12 13 14 15 16 16 16 17 18 18 18 19 18 16 16 16 15 14 14
1 0 1 2 2 3 4 3 2 2 3 2 1 0 2 1 3 3 4 5 2 4 2 2 5 4 5 2 1 3 9 19 20 25 27 28 27 26 24 20 18 17 19 20 21 20 19 18 17 16 15 15 15 14 14 14 14 13 13 11 11 11 10 10 8 8 8 8 8 8 8 8 8 8 9 9 10 12 14 14 15 16 17 17 17 19 19 20 21 21 21 20 19 18 17 16 15
1 2 2 2 1 4 5 4 3 2 2 2 2 2 3 2 3 5 5 4 3 4 1 3 5 4 4 1 1 3 6 16 18 25 27 26 25 23 21 19 18 18 17 19 20 20 19 18 17 17 15 15 14 14 14 14 14 13 12 11 11 10 9 8 8 8 7 7 7 7 7 7 8 9 9 9 11 13 13 13 15 15 17 18 18 19 19 20 21 21 21 20 20 19 18 18 16
3 2 3 2 1 4 5 3 3 2 1 3 1 3 4 2 4 5 5 6 2 2 4 5 6 6 3 2 1 3 3 14 21 25 25 23 20 18 18 19 20 20 18 18 18 19 19 18 17 16 15 15 14 14 13 13 13 12 11 11 10 9 8 7 7 7 7 6 5 5 6 7 7 8 8 8 10 10 10 10 11 11 12 14 14 15 17 18 19 20 20 20 18 18 18 18 16
5 1 3 3 2 3 3 3 3 3 1 4 2 5 4 2 4 4 4 6 3 2 6 5 5 4 4 6 5 4 6 16 23 24 23 22 19 19 20 21 21 21 20 18 18 18 17 17 16 15 15 15 14 13 13 12 11 10 10 10 10 8 7 6 6 6 6 5 5 6 6 5 6 7 6 6 7 7 7 6 5 5 6 8 9 10 12 12 12 14 16 19 17 17 17 17 16
5 1 2 2 3 4 2 3 3 4 2 4 3 5 4 2 4 4 2 3 4 3 4 3 3 4 5 6 8 10 11 18 24 26 25 24 23 22 21 21 21 21 21 20 19 18 17 17 15 15 15 15 14 13 12 12 10 9 9 9 8 7 6 5 5 6 6 6 6 6 5 4 4 4 3 2 2 2 2 2 3 3 3 4 4 4 7 7 7 7 8 11 14 15 17 17 17
4 1 2 2 3 4 4 5 4 4 4 5 5 5 6 3 2 3 2 4 5 4 2 1 1 4 7 6 11 15 13 16 23 26 26 25 23 20 19 19 20 21 20 19 19 18 18 17 16 15 16 15 14 12 12 12 11 9 8 7 7 6 5 4 4 4 4 5 4 2 2 1 1 1 3 4 4 4 3 3 4 4 4 4 5 5 4 4 4 4 4 4 7 9 11 13 15
5 3 3 3 3 4 5 6 6 6 7 7 8 7 7 7 4 3 4 6 5 6 4 3 5 5 9 12 16 14 13 16 19 22 22 20 18 17 16 16 18 19 18 18 17 18 18 17 15 15 16 14 13 12 11 11 10 8 7 6 6 5 3 2 2 2 2 3 3 2 3 4 5 5 6 6 5 6 6 4 4 5 6 5 6 7 7 6 6 4 4 2 2 3 4 6 8
6 2 4 3 4 4 5 8 9 9 10 10 9 8 8 9 8 5 5 6 6 7 4 5 8 7 10 14 15 13 13 15 15 18 19 16 16 16 15 15 16 16 17 17 16 17 17 17 15 15 15 13 12 12 11 10 9 8 7 6 5 4 2 1 2 3 4 5 6 6 7 7 7 7 6 6 6 6 7 6 5 6 7 7 6 7 9 8 8 7 6 4 4 4 4 6 6
4 3 5 2 5 5 6 11 11 11 12 13 10 8 8 9 7 5 6 7 5 6 5 6 8 8 9 10 12 14 13 13 12 14 15 15 16 17 17 16 16 16 17 16 16 16 17 17 16 14 14 13 12 12 11 10 9 8 7 6 4 3 3 3 3 5 6 7 7 7 7 6 5 5 4 6 7 6 7 7 6 6 8 9 8 7 9 9 8 8 8 7 6 6 6 7 7
2 3 5 4 7 7 7 11 10 11 14 13 12 10 9 8 6 6 9 8 3 5 6 7 12 12 11 9 11 15 13 12 12 13 14 15 15 17 18 18 17 16 15 15 15 15 15 15 16 14 13 13 12 11 12 11 9 9 8 6 4 4 5 5 6 7 7 8 7 7 7 6 6 7 7 8 10 10 10 10 9 9 9 9 9 8 9 10 9 8 8 7 7 7 6 7 7
4 3 6 7 7 7 9 11 10 12 12 11 12 11 9 8 6 8 11 7 4 6 6 7 11 12 11 11 11 13 12 11 11 12 13 14 15 16 17 17 16 16 14 14 15 15 14 14 15 14 12 12 12 11 11 10 9 10 8 6 5 6 7 8 9 9 9 9 9 8 8 9 11 12 12 12 12 13 12 12 12 12 12 11 10 9 9 9 9 9 9 8 7 9 9 9 9
6 3 5 7 6 7 8 10 11 12 12 12 11 10 10 9 8 9 8 4 4 6 7 9 10 11 12 12 11 10 9 9 11 13 14 15 15 16 17 17 17 16 14 14 14 14 13 13 14 13 11 11 12 11 12 11 9 8 7 5 6 7 8 9 10 10 11 11 10 9 9 9 11 12 12 11 11 12 12 11 11 11 10 10 10 9 9 9 9 10 10 8 8 9 9 10 10
9 5 5 8 8 7 7 8 9 11 13 12 10 9 12 11 9 8 5 2 6 8 8 10 10 12 12 10 8 8 9 10 11 14 16 17 17 17 17 16 16 15 14 14 14 13 12 13 13 12 11 11 12 12 11 10 8 7 7 6 8 8 8 9 11 12 12 11 10 9 9 9 11 12 13 12 12 13 13 12 11 11 11 11 11 11 11 10 10 11 11 10 9 9 9 10 10
9 7 6 7 7 7 8 9 8 9 10 11 10 9 10 10 9 7 5 6 9 10 9 9 9 9 9 8 8 7 8 10 11 13 15 16 17 17 16 16 14 13 13 14 14 13 12 12 12 11 11 11 12 10 9 9 8 7 8 9 10 9 9 11 12 13 11 11 10 10 10 11 12 14 15 15 14 14 14 13 13 12 12 12 13 14 14 13 13 12 12 11 10 9 8 8 9
6 8 8 7 7 7 9 8 8 8 7 11 12 7 7 9 9 7 6 9 10 11 10 9 9 8 8 8 8 8 7 9 12 14 14 16 17 17 17 17 16 14 13 12 13 14 14 14 12 10 9 10 10 8 8 8 8 8 9 10 11 11 11 11 12 12 11 10 9 9 10 11 12 13 14 14 14 14 14 13 13 12 12 13 14 15 15 15 14 13 13 12 11 10 9 8 9
8 10 9 9 8 6 7 7 8 10 7 12 13 8 9 8 5 5 6 10 11 12 10 9 10 9 9 8 8 9 9 11 15 15 15 16 17 18 18 18 17 16 14 13 13 13 14 15 14 11 9 8 8 8 8 9 9 10 10 11 12 12 11 11 12 11 10 10 9 9 10 10 10 11 12 13 13 14 14 14 13 12 12 13 14 15 16 15 15 14 14 13 12 11 10 10 11
9 10 9 9 8 4 6 8 7 10 7 9 13 10 8 3 1 7 11 12 12 12 11 10 10 9 9 9 8 8 9 14 17 16 16 17 18 20 20 20 19 17 16 14 13 12 13 14 14 12 10 9 9 8 9 11 12 12 12 12 12 13 13 13 12 11 11 11 10 10 11 10 10 10 10 11 12 13 14 14 13 13 13 13 13 14 15 14 15 15 14 14 12 12 13 13 15
9 9 9 7 7 4 6 7 5 8 7 10 13 8 4 3 2 11 14 14 13 13 11 10 9 8 7 8 7 6 9 14 15 15 18 20 22 22 22 20 19 19 17 14 12 12 12 13 12 11 10 10 10 10 11 13 13 12 12 12 11 13 14 13 12 12 12 12 11 11 12 12 11 10 10 11 12 12 13 14 13 13 13 12 12 13 13 13 14 15 16 15 13 15 16 17 18
8 6 7 6 5 3 6 6 4 6 9 13 11 4 5 5 6 13 14 15 15 13 12 10 8 7 7 7 6 5 8 12 13 15 19 22 24 23 21 20 18 17 16 14 13 13 13 13 11 10 10 10 11 13 13 13 13 13 12 10 10 14 14 13 13 13 12 12 12 13 14 13 12 11 11 11 12 13 13 14 14 13 12 11 11 12 13 14 15 15 17 17 16 18 18 20 21
6 4 3 3 4 5 7 6 7 6 4 9 9 1 6 5 9 14 14 16 16 14 13 11 9 7 6 6 7 6 7 12 16 17 19 23 25 23 21 20 18 17 16 15 15 15 15 13 11 10 11 11 13 14 14 13 11 11 9 9 13 16 15 14 14 13 13 13 15 16 15 14 13 12 13 12 13 13 13 14 14 13 12 11 12 12 15 16 15 15 17 18 18 19 20 21 21
3 4 0 2 2 4 5 5 8 8 3 4 7 2 4 5 10 14 14 15 16 14 12 11 10 9 7 6 7 6 5 10 16 17 19 24 25 23 22 21 19 18 17 16 16 16 15 13 12 12 13 13 14 14 12 10 7 7 9 13 17 17 15 14 14 13 14 14 16 16 14 14 13 13 14 14 14 13 13 13 13 12 11 11 12 14 17 17 16 15 16 18 19 20 22 22 20
2 3 3 3 3 4 5 5 7 8 7 4 5 4 2 4 10 14 14 15 15 13 12 12 11 11 10 8 7 6 5 7 11 14 19 24 24 24 23 22 21 20 18 17 17 17 16 14 13 14 15 14 15 14 10 8 8 11 15 19 18 16 15 14 13 12 13 14 14 13 13 13 14 14 15 15 14 13 13 13 13 12 11 11 13 17 18 17 17 17 16 17 19 21 22 22 21
4 1 2 3 4 4 5 5 6 5 8 7 5 5 5 5 11 15 15 16 14 13 13 13 12 11 10 8 7 6 7 8 9 13 20 23 24 25 24 22 21 20 18 17 18 18 16 15 15 16 15 15 15 13 12 13 15 18 20 19 16 15 14 13 12 12 12 12 12 12 12 12 14 16 16 16 14 13 14 14 14 13 12 12 15 18 18 17 17 18 17 16 18 21 23 22 21
3 3 2 3 4 5 8 8 7 8 8 8 7 5 7 6 11 14 15 15 13 13 14 12 12 12 9 8 7 8 10 10 11 17 23 24 25 24 23 23 21 20 18 17 19 18 16 15 16 17 16 17 16 14 16 19 19 20 20 18 17 15 13 12 11 11 12 11 11 11 11 13 15 17 18 19 17 15 15 15 14 14 14 15 18 19 17 17 18 18 17 16 17 20 22 22 20
7 7 4 4 4 4 8 9 10 12 8 7 10 8 7 7 12 14 14 14 11 12 13 10 11 10 8 7 8 10 11 11 15 22 23 23 25 25 24 23 22 21 19 19 20 19 17 16 17 18 18 18 16 14 18 19 19 20 19 18 17 15 14 12 12 11 11 11 11 12 13 14 16 18 19 20 19 17 17 16 14 15 16 18 20 20 18 16 17 18 18 17 17 19 23 23 21
8 7 4 6 6 4 9 11 11 12 7 6 10 8 7 10 13 13 13 12 10 11 12 11 11 9 7 9 11 12 12 12 16 18 19 22 25 26 25 24 22 21 19 20 21 20 17 17 18 18 19 18 14 14 17 17 17 19 18 17 17 15 13 13 13 12 12 13 13 14 14 15 17 18 18 19 19 19 18 15 15 17 18 20 21 20 18 17 18 17 17 18 18 20 22 25 23
8 7 5 5 5 5 6 12 12 11 7 5 6 7 8 12 11 10 11 10 10 12 15 13 13 10 9 11 13 13 11 8 7 10 18 24 24 25 24 23 23 21 20 21 22 21 18 17 18 18 18 16 12 13 16 15 15 17 16 15 16 15 13 12 14 13 14 15 14 15 15 16 16 16 16 18 19 19 18 16 16 18 20 21 21 20 18 18 19 18 17 18 18 18 20 25 26
7 6 5 5 6 4 0 10 15 11 6 5 7 7 6 8 7 6 6 8 9 12 17 17 16 13 11 11 13 12 8 5 8 11 18 24 25 24 24 22 22 22 21 21 21 21 20 18 18 17 15 13 11 13 15 14 14 15 14 15 16 15 13 12 14 14 14 15 15 16 16 15 15 15 16 18 19 19 17 16 17 19 20 21 21 20 20 20 20 19 19 19 19 18 19 23 26
5 5 4 4 5 2 1 8 14 11 4 4 7 5 1 2 3 2 6 8 9 10 14 16 16 16 14 13 13 11 7 7 9 10 14 21 23 23 23 22 22 22 21 22 22 22 21 19 17 16 15 13 13 14 14 13 13 15 14 15 16 15 15 14 14 14 14 14 16 17 16 15 15 14 16 18 18 18 17 17 18 19 20 21 21 21 20 20 20 20 20 21 20 19 19 21 23
7 7 6 5 5 6 6 7 10 7 1 3 9 5 3 2 4 4 8 9 10 8 11 12 12 13 12 13 11 7 8 8 10 12 12 16 20 21 23 23 22 22 22 22 23 22 21 19 17 16 16 16 15 15 14 14 16 17 17 17 17 16 15 14 13 13 12 13 16 17 16 15 15 16 18 18 17 18 18 18 18 19 20 21 22 21 20 19 20 21 21 23 22 19 18 21 20
6 7 8 8 8 8 6 10 10 6 1 1 8 5 3 5 4 6 7 7 8 6 10 13 11 9 9 10 9 7 8 8 10 12 13 15 18 21 23 23 23 22 22 22 22 22 20 19 18 18 17 16 16 15 15 15 17 18 18 19 20 18 15 13 13 13 14 15 16 16 17 16 17 18 19 18 18 18 17 17 17 18 19 20 20 21 21 20 20 21 20 21 23 19 18 21 21
4 7 7 5 6 7 6 12 10 4 2 6 9 6 2 3 4 6 8 8 8 5 9 13 12 10 9 10 8 8 8 8 10 11 13 16 19 20 21 23 24 24 23 23 22 21 20 20 20 19 17 16 15 14 14 14 15 16 16 17 18 18 18 16 16 17 18 18 16 16 16 16 17 19 19 19 18 17 16 15 16 18 19 18 18 20 21 20 19 19 18 20 22 20 18 20 21
6 8 4 1 3 6 4 8 7 4 3 5 8 5 3 2 4 5 9 9 8 7 11 14 14 12 11 10 8 9 9 9 11 12 12 15 18 20 21 22 24 25 25 24 23 22 21 21 20 18 17 16 14 13 12 13 14 15 16 17 17 17 19 19 18 19 19 18 17 16 16 16 17 18 20 19 17 16 15 15 16 17 18 18 18 19 20 19 18 17 16 18 21 21 20 18 19
7 8 4 3 4 4 1 0 2 3 5 3 7 3 4 2 5 1 8 8 8 12 15 17 16 15 13 11 10 9 10 9 10 12 12 14 17 20 22 23 25 26 26 26 25 24 23 22 20 19 17 15 14 15 15 16 16 16 16 18 18 18 19 20 18 18 18 17 16 16 15 15 15 16 17 16 15 15 15 16 17 17 18 18 18 19 19 18 17 16 15 16 20 21 20 19 19
7 6 4 2 2 2 1 1 1 2 4 5 10 6 4 3 5 1 5 7 10 14 15 16 17 14 12 12 12 10 9 8 8 9 11 14 19 23 25 26 26 26 26 26 25 25 24 22 21 20 17 16 16 17 18 17 16 16 18 19 19 19 20 20 18 17 16 16 16 16 15 14 15 15 13 12 14 15 15 16 16 16 17 17 17 18 20 20 17 15 15 15 17 20 20 19 20
4 4 4 4 4 3 2 2 3 3 1 5 10 11 7 0 5 6 7 9 14 13 10 12 14 12 11 12 11 10 10 8 8 8 11 16 21 24 26 26 26 26 26 26 25 25 24 23 22 21 19 17 18 17 17 17 17 17 19 19 20 20 20 19 18 18 16 15 16 15 15 15 15 15 13 13 16 16 15 15 15 14 16 16 17 19 21 20 17 14 14 14 16 19 19 18 19
2 4 3 4 5 4 5 4 4 3 3 7 7 9 8 3 5 8 10 11 12 13 13 15 16 15 13 12 11 10 10 10 10 9 11 15 18 21 24 24 25 26 26 25 25 25 24 24 23 22 20 18 18 17 17 17 17 18 19 20 20 19 18 18 18 17 16 15 15 16 17 16 15 14 14 15 16 15 14 15 14 12 14 16 17 20 21 19 17 16 16 17 18 19 19 19 20
4 4 4 4 3 4 3 3 3 1 5 7 4 7 5 5 6 9 14 14 10 12 15 15 16 17 15 12 11 10 10 11 11 11 11 12 14 18 21 23 24 25 25 25 24 24 26 26 25 24 21 19 18 18 18 17 17 17 18 19 19 18 18 18 18 17 16 14 14 16 15 13 11 11 14 16 16 15 16 18 16 14 16 18 17 19 20 18 18 19 18 19 21 20 19 19 20
2 2 3 4 2 1 2 4 3 1 5 7 3 7 2 4 5 8 16 18 14 11 11 10 13 16 15 13 11 11 11 11 10 11 11 11 13 18 20 22 23 23 25 24 24 25 27 26 25 25 22 20 19 19 19 18 17 16 16 17 17 17 18 17 17 17 15 13 13 14 11 8 7 9 13 17 16 16 17 18 18 16 16 17 16 17 19 18 17 19 19 18 19 20 18 18 18
4 3 5 4 4 3 3 3 3 3 5 6 1 3 2 2 4 6 13 15 10 6 6 5 7 10 12 11 11 12 11 11 10 10 11 11 16 19 20 21 22 24 25 23 24 26 27 26 25 25 23 21 20 20 19 18 17 16 15 17 17 17 18 18 17 15 14 13 13 12 11 9 9 11 15 17 16 16 15 15 16 17 15 13 13 15 18 17 15 16 19 19 17 16 17 18 18
4 3 6 2 5 5 3 3 5 3 1 4 2 1 3 3 4 4 4 5 0 2 5 8 10 11 12 10 10 11 11 11 10 10 10 12 17 20 20 21 23 24 24 23 24 26 26 26 25 24 23 22 21 20 18 18 18 18 17 18 18 17 17 17 16 15 13 15 14 14 15 14 14 16 16 16 17 16 14 12 13 14 14 12 12 13 16 16 15 13 15 17 17 15 15 18 19
2 2 3 5 5 7 2 2 3 2 0 5 1 1 3 1 4 6 6 7 6 6 7 9 11 13 12 10 9 10 10 11 10 10 11 13 17 19 20 22 23 24 24 24 25 26 27 27 25 24 23 22 21 19 19 19 20 20 19 19 18 17 16 15 15 14 15 16 14 14 17 18 18 17 16 15 14 14 12 12 12 12 12 13 13 13 14 15 14 12 11 13 15 15 15 16 17
4 2 6 3 2 4 3 0 2 2 1 5 1 1 2 2 1 3 6 7 4 6 7 8 9 11 11 9 9 10 10 11 11 11 12 14 17 19 20 21 23 24 24 24 25 25 26 26 24 24 23 21 21 21 22 22 22 22 21 20 19 17 17 16 15 15 16 15 12 12 14 16 17 16 14 11 10 10 10 10 13 13 11 11 12 13 12 13 14 12 10 10 11 12 13 14 14
5 4 4 3 2 1 0 1 1 0 2 2 4 3 2 4 3 3 7 8 6 5 6 9 10 10 10 10 10 11 12 11 11 12 11 13 17 19 21 22 24 26 26 25 24 25 26 26 24 24 22 21 21 21 22 22 21 21 21 19 19 18 18 16 14 13 13 12 11 12 12 13 14 13 11 9 9 11 11 9 12 14 12 10 11 11 10 11 12 12 11 9 8 9 10 11 12
1 3 2 1 3 3 2 2 4 3 3 2 1 3 2 4 4 4 7 9 10 9 8 9 10 11 11 12 12 12 12 11 11 12 10 12 17 21 23 25 27 30 29 28 27 26 27 26 25 24 23 22 22 21 21 20 19 20 19 19 19 18 17 15 13 12 12 12 13 14 13 14 14 10 10 11 11 10 10 9 9 12 13 11 10 12 13 12 11 12 14 12 9 8 8 10 12
1 3 4 2 1 2 2 2 3 4 3 3 3 2 5 5 3 3 6 9 12 12 11 9 9 10 11 12 13 12 12 12 12 12 11 12 18 21 23 26 29 30 29 28 28 28 28 27 26 25 23 22 21 21 20 20 19 19 19 20 19 17 15 14 13 13 13 14 15 14 11 11 10 9 10 12 12 12 11 9 8 8 11 13 11 12 15 16 15 16 18 17 14 12 9 9 12
5 5 6 5 4 3 1 4 3 1 3 4 5 3 5 4 1 2 6 11 11 11 12 9 7 9 9 9 11 12 12 12 13 12 11 13 18 21 23 26 28 28 27 28 28 28 28 28 26 25 23 22 21 20 20 20 20 20 20 20 18 16 14 13 13 13 13 13 13 12 10 9 9 10 10 11 12 15 16 14 10 7 7 10 11 11 14 16 17 19 20 20 19 18 13 10 12
Wind_Direction
149 151 147 146 152 150 136 46 333 327 69 75 10 77 44 46 105 154 126 164 316 51 293 321 117 136 121 131 142 97 44 37 154 140 148 142 145 149 158 155 150 150 149 146 145 146 146 144 140 138 137 136 134 133 133 132 132 133 131 132 131 132 133 134 136 135 137 138 139 141 140 141 144 145 145 147 149 154 158 162 164 164 166 167 169 172 177 180 186 191 197 202 208 213 218 220 219
154 153 145 141 146 144 83 52 51 359 44 87 357 16 32 19 114 96 76 88 98 135 244 288 111 118 122 136 150 67 34 359 73 101 101 126 131 141 154 152 150 151 149 148 148 148 148 145 141 140 140 138 136 134 133 133 134 135 135 136 136 137 138 138 139 139 141 141 143 144 144 146 149 153 154 155 159 162 164 168 169 173 176 176 180 184 186 189 193 199 202 205 209 210 213 218 220
156 152 145 136 111 21 66 68 60 28 53 79 25 5 15 82 96 90 94 121 170 188 207 255 64 55 100 99 47 54 47 357 70 93 112 128 125 135 148 150 151 150 148 149 149 150 148 145 143 142 141 140 138 137 136 136 137 138 139 141 142 142 143 144 145 148 149 150 150 150 151 153 156 159 161 163 167 169 171 175 177 182 186 186 191 195 197 199 202 205 205 206 208 208 211 217 222
155 151 146 136 65 19 72 64 57 78 76 74 57 355 343 96 116 126 150 145 212 213 180 210 65 14 98 85 57 64 77 17 73 93 119 133 132 138 145 149 150 147 147 150 151 150 147 145 144 144 142 142 141 140 140 140 141 142 143 145 145 144 145 149 150 152 152 156 157 156 158 158 162 163 165 171 173 176 179 182 186 189 192 194 198 198 202 205 205 208 210 211 213 216 218 222 226
152 155 147 113 80 84 80 84 38 41 57 6 89 36 284 239 145 137 132 138 250 228 135 112 88 177 96 76 123 61 44 341 71 93 111 125 133 141 148 148 145 144 149 152 153 149 146 146 146 146 144 143 143 143 142 143 143 143 145 144 143 145 147 150 150 151 154 158 158 159 162 162 165 167 171 177 179 184 187 191 194 195 199 203 206 204 207 212 213 216 220 221 222 223 225 227 229
149 158 149 39 58 104 71 73 52 58 26 330 122 141 212 234 205 131 132 155 202 80 81 72 102 115 93 54 62 73 42 277 56 109 119 128 140 147 148 145 142 146 153 154 153 148 145 147 147 147 145 145 144 144 144 144 144 145 146 145 147 150 151 151 151 155 158 160 162 165 169 170 170 174 178 181 188 192 194 201 202 204 210 213 219 215 216 222 222 224 226 227 227 227 226 227 228
149 146 47 29 9 33 76 68 52 49 1 340 132 159 200 224 204 105 81 113 58 48 68 70 129 102 88 6 97 67 46 43 79 127 130 139 145 144 141 142 144 149 153 154 152 147 146 149 149 149 148 147 146 146 147 147 148 148 149 151 153 155 155 155 157 162 164 166 169 174 180 178 179 184 186 188 196 202 203 212 214 217 222 224 230 226 224 228 228 230 230 230 231 229 225 224 223
155 144 238 121 52 51 78 66 50 27 353 347 60 195 210 199 139 64 40 60 58 40 70 88 113 89 53 1 88 23 38 58 116 135 139 142 141 138 143 146 143 147 152 154 150 145 148 152 151 151 150 149 148 148 150 151 153 152 154 156 157 158 159 161 165 168 171 176 178 183 188 187 192 199 201 207 210 214 219 226 229 231 233 233 236 234 233 234 235 237 238 238 237 235 233 229 225
169 216 294 104 59 76 78 51 44 21 348 335 309 248 203 102 51 78 71 65 87 62 53 159 89 88 97 42 61 337 33 56 105 133 138 135 131 135 146 148 139 145 152 152 149 148 154 156 155 155 154 152 150 152 154 155 157 157 157 159 161 164 165 167 171 173 176 184 188 190 195 197 204 210 214 231 233 233 242 244 246 246 245 246 247 247 246 245 245 244 243 244 242 240 240 238 234
171 241 18 50 69 78 71 40 23 337 309 303 292 271 135 139 73 74 81 83 102 71 53 95 80 99 119 69 55 328 23 48 78 105 126 134 137 141 149 151 142 145 152 155 153 153 157 159 159 158 158 155 154 156 158 158 158 159 159 161 165 167 167 171 173 178 184 190 196 195 205 209 218 228 227 243 248 248 249 247 249 245 245 246 247 251 250 249 247 245 243 244 244 242 241 240 239
77 203 46 44 65 76 89 83 82 283 291 294 316 42 116 181 88 55 80 98 102 89 96 85 89 119 95 62 48 354 31 56 80 97 120 140 148 151 152 152 148 146 152 156 155 155 159 164 163 161 162 159 158 159 160 161 163 164 166 167 169 172 175 180 180 187 198 201 204 204 214 221 229 238 238 244 245 248 251 252 254 250 251 250 246 248 249 248 245 244 243 242 242 242 242 240 239
65 199 99 72 68 97 125 121 156 233 302 303 315 190 159 161 104 106 118 110 104 90 87 102 133 148 77 80 275 345 53 65 88 111 125 142 149 153 149 146 147 148 154 157 155 157 163 166 164 167 168 163 163 164 166 166 168 172 174 176 177 180 182 187 189 194 203 207 213 217 222 230 235 242 246 248 250 255 258 260 261 259 258 257 253 252 254 254 251 249 247 245 243 243 244 243 241
139 198 114 77 97 113 129 126 155 176 337 277 236 194 165 149 143 156 136 110 114 95 98 152 143 119 76 131 311 333 64 75 101 122 130 140 145 151 149 145 147 151 158 159 158 160 164 166 168 171 170 168 168 169 172 171 174 177 177 182 182 184 184 190 196 198 208 211 220 229 231 241 245 250 253 255 260 262 263 265 266 266 262 262 261 258 259 259 257 256 254 252 249 249 249 246 245
169 196 121 90 155 124 120 125 168 148 27 261 215 171 176 167 171 163 129 107 96 120 136 140 123 97 98 162 47 306 96 98 112 120 126 131 138 153 157 152 150 154 159 162 163 163 166 168 170 170 169 170 171 173 176 175 177 178 179 183 183 186 187 193 201 206 218 218 232 245 247 255 253 256 262 268 273 276 280 280 277 277 274 272 270 266 267 265 262 260 257 256 252 250 254 254 252
184 204 120 101 136 125 107 135 166 130 146 243 189 162 173 181 153 141 142 124 106 150 129 131 136 118 160 167 163 209 136 117 117 117 121 129 142 155 160 156 153 158 160 164 165 164 167 168 169 168 172 173 173 177 176 175 176 178 182 184 184 189 191 195 206 217 225 225 238 245 245 254 265 274 287 293 291 293 296 300 301 301 300 292 287 277 275 276 273 267 258 256 254 250 255 260 258
193 217 90 82 117 115 106 134 133 120 179 225 191 157 141 171 143 130 189 119 114 157 124 145 179 144 155 166 165 164 137 124 122 119 122 131 141 147 153 155 157 161 163 167 168 166 167 169 169 167 174 176 176 180 178 179 180 182 187 189 190 190 191 197 209 215 219 223 231 243 261 288 300 297 317 349 334 329 315 351 11 9 13 346 331 302 282 290 294 290 274 259 257 255 258 261 257
189 222 80 90 128 129 150 159 155 148 175 192 185 169 139 143 120 117 129 86 109 130 88 93 47 123 140 159 160 150 135 131 128 123 125 130 138 142 145 150 156 163 169 174 172 171 170 171 172 171 176 176 177 180 179 185 188 189 192 197 197 189 187 194 207 209 220 227 226 248 274 313 27 86 71 73 64 45 46 37 37 50 53 48 37 35 14 352 340 323 329 290 264 263 266 264 257
176 199 118 115 138 150 167 166 166 151 159 173 175 176 146 135 136 144 122 92 98 87 58 59 48 73 118 137 147 142 133 135 132 127 130 135 141 147 147 151 156 161 173 178 176 177 177 176 176 178 181 179 182 184 184 190 192 190 193 202 198 187 192 194 192 187 195 185 145 136 138 120 101 86 72 71 62 43 40 33 39 48 47 47 38 33 29 20 16 18 18 1 287 283 274 267 260
187 171 107 139 170 158 156 145 153 153 158 163 163 170 149 146 153 154 139 120 113 95 73 77 80 87 110 128 136 139 140 136 132 130 136 143 147 152 154 156 157 161 173 178 178 181 184 184 184 188 189 188 193 196 195 195 192 188 187 195 195 190 201 162 163 150 132 127 120 118 112 101 86 74 64 55 39 22 15 10 12 29 34 26 17 17 16 8 1 2 360 346 327 318 287 285 295
181 109 102 165 158 138 148 149 158 159 156 153 153 162 153 160 159 145 139 129 127 132 135 120 121 132 128 133 137 141 144 138 137 133 133 141 148 154 158 161 163 168 175 177 179 183 187 189 190 192 195 196 199 201 199 193 188 185 183 187 188 170 155 144 130 120 116 112 110 105 92 81 68 53 36 30 27 18 16 18 12 19 28 18 10 14 17 15 9 5 2 352 338 325 304 305 314
115 107 137 160 133 132 163 160 162 156 151 150 152 156 156 163 154 144 141 128 152 182 180 157 148 153 147 148 144 144 145 141 146 144 136 138 149 158 161 165 169 171 173 173 177 182 187 194 195 193 194 193 192 194 191 185 180 183 189 188 170 142 133 124 110 109 107 98 92 85 75 68 66 64 60 59 58 57 62 64 58 54 52 46 41 37 33 29 24 19 13 4 358 354 346 341 331
100 99 141 148 134 142 170 166 159 150 144 147 153 157 158 154 148 157 153 146 187 188 180 161 152 155 153 153 147 144 147 148 156 154 147 145 152 159 160 162 165 168 170 170 174 179 186 191 190 184 183 183 183 185 183 180 179 182 188 180 154 142 132 114 102 100 95 89 87 82 82 82 82 82 78 74 68 66 74 75 67 62 61 56 46 39 35 29 20 15 8 359 357 0 1 354 341
109 107 129 127 117 128 158 160 151 145 143 151 161 163 156 149 153 170 174 173 169 147 146 147 148 153 149 149 148 148 152 157 164 160 157 153 154 160 162 163 165 168 172 173 177 181 180 176 173 171 171 173 175 179 180 179 176 171 175 168 150 147 139 117 98 93 91 90 89 84 84 86 85 83 77 73 69 69 70 64 56 51 47 39 28 24 23 19 15 19 24 25 19 12 10 6 359
114 127 128 114 107 114 131 138 140 145 152 156 159 159 157 156 156 167 177 142 123 122 130 139 143 146 142 144 151 156 158 162 171 168 163 158 158 164 167 172 175 175 172 169 177 181 177 174 172 169 166 168 170 173 175 173 167 164 169 163 158 154 138 116 99 94 90 87 87 83 85 87 84 77 71 71 73 71 63 53 49 42 36 31 27 28 28 29 32 35 37 34 29 20 13 7 2
115 135 137 122 120 124 120 125 128 132 149 149 148 157 157 150 135 134 143 124 122 126 129 136 138 141 141 148 158 162 162 165 171 171 166 161 161 163 167 175 180 181 177 171 174 175 177 179 177 173 167 166 169 169 166 167 166 161 158 153 152 141 119 108 99 93 90 90 89 84 87 86 81 76 71 73 73 66 58 52 49 42 38 37 36 38 38 37 36 34 29 23 18 8 359 353 346
142 141 137 130 133 137 125 127 119 108 131 136 136 145 138 134 111 99 135 131 130 131 134 144 144 148 153 158 164 166 168 171 172 171 169 164 161 163 168 174 179 184 185 181 176 172 175 179 179 176 166 164 167 166 165 169 167 154 148 144 137 125 115 112 104 99 96 95 91 84 85 83 79 77 72 72 69 60 53 50 47 42 41 42 40 42 40 34 31 27 24 20 13 4 356 351 347
150 137 133 135 142 147 127 126 118 106 123 136 133 139 145 148 112 114 154 139 138 139 142 156 154 159 165 167 175 171 169 178 176 167 165 164 162 165 169 174 180 184 185 182 178 173 172 175 177 171 163 168 168 164 163 163 157 147 141 136 134 127 118 118 114 107 101 94 89 86 83 82 78 73 70 68 64 57 52 48 48 46 43 41 42 45 41 36 32 28 23 17 13 10 6 3 3
140 131 123 136 139 137 126 130 134 115 122 144 129 130 156 181 89 149 157 146 148 148 150 163 164 170 170 171 180 174 175 183 179 166 164 172 171 169 170 175 177 179 183 184 179 172 171 174 172 165 163 167 167 162 155 150 148 144 137 136 138 130 121 122 118 106 100 94 87 81 75 72 67 65 66 67 63 59 56 52 51 49 42 38 42 45 43 39 33 27 19 14 14 14 13 13 13
129 126 122 148 134 144 155 140 161 127 130 151 121 110 196 247 173 153 150 149 154 153 159 171 174 181 178 177 183 180 186 185 179 175 177 178 179 176 173 176 176 176 183 185 177 173 173 175 172 162 157 157 160 157 148 143 142 139 136 135 134 129 126 122 111 103 99 91 81 70 64 61 58 59 60 63 62 58 56 53 50 47 41 40 42 43 43 35 27 24 18 15 14 14 18 18 13
126 120 122 151 122 183 195 149 166 129 138 155 125 113 238 245 179 156 151 155 158 159 168 176 180 187 183 183 188 189 188 182 184 190 188 183 183 183 178 177 178 176 179 179 173 172 172 174 173 160 149 148 149 148 144 142 139 136 135 130 130 130 126 116 108 105 95 85 73 62 60 60 59 58 55 55 54 51 51 51 49 44 38 40 43 43 38 27 22 24 19 16 17 19 22 20 13
125 98 86 149 138 205 207 166 159 132 155 156 113 122 232 218 179 162 161 164 162 165 171 173 179 185 184 184 187 192 185 180 188 192 189 185 183 181 177 177 179 176 175 175 172 172 172 171 172 163 148 143 142 145 145 143 142 144 144 137 134 132 124 115 110 101 89 79 68 63 62 63 62 56 48 43 42 43 43 44 44 39 37 41 46 42 31 27 31 30 22 18 22 25 24 20 15
93 101 308 248 157 195 196 188 170 146 177 162 113 148 236 207 185 172 169 171 168 167 168 169 175 181 182 182 183 186 175 175 184 183 179 179 177 175 174 174 177 176 173 172 170 170 170 165 166 163 152 146 143 145 146 146 153 156 147 139 134 130 122 113 107 96 86 77 71 70 66 63 61 54 44 34 31 34 35 37 36 34 36 40 44 38 33 37 39 33 28 26 28 29 25 21 17
344 118 196 225 151 177 187 210 213 160 150 177 154 153 203 207 189 179 175 178 172 163 163 164 171 183 181 179 181 171 154 166 180 177 169 169 169 171 172 171 173 174 168 167 168 166 164 160 160 158 154 151 146 145 143 139 141 138 135 135 132 127 118 111 104 95 87 80 75 73 67 62 56 47 39 28 26 33 37 36 34 36 38 40 40 35 38 44 40 33 32 33 35 32 26 22 18
295 92 189 228 177 168 168 189 234 185 149 183 187 159 196 203 180 178 180 182 172 157 161 163 172 186 182 177 173 161 161 172 182 176 166 163 162 164 167 167 168 169 165 165 165 162 163 162 157 157 157 152 146 141 133 130 130 131 132 132 128 121 114 109 101 92 88 83 76 71 63 54 44 38 36 33 37 45 45 40 39 42 41 41 36 34 42 45 41 39 34 35 40 36 28 21 15
212 201 204 242 197 159 165 173 197 192 173 180 177 189 224 206 176 180 182 181 170 155 158 163 178 187 181 170 161 164 173 180 187 179 167 158 154 155 160 163 164 165 166 168 167 164 165 162 157 158 157 153 149 139 131 131 130 129 131 129 125 119 114 109 101 95 93 84 72 65 53 46 43 43 44 45 48 49 44 40 42 44 42 41 36 36 43 43 42 44 37 36 42 39 31 24 18
196 204 187 197 208 178 179 181 181 179 175 179 179 192 210 191 184 184 180 177 161 148 154 163 183 188 170 155 159 172 179 187 193 182 164 148 143 145 151 156 158 159 160 163 164 163 162 161 159 157 155 155 152 143 136 134 131 131 132 129 124 121 117 110 103 98 91 78 66 59 51 50 51 51 50 48 48 44 38 39 45 45 43 40 36 36 41 43 45 47 42 39 38 37 33 27 22
219 219 199 200 214 218 189 184 184 171 164 205 189 173 181 190 191 183 174 166 143 137 150 166 186 187 161 156 168 178 185 194 193 174 146 132 135 140 145 149 152 153 154 156 156 157 158 159 160 158 158 158 154 150 148 143 139 139 137 133 128 126 122 113 104 96 85 75 68 63 60 60 57 54 52 47 43 38 35 43 48 45 42 39 38 40 46 51 51 50 46 42 37 33 30 27 25
231 229 227 217 213 237 196 170 179 172 162 215 184 145 176 196 193 182 168 150 134 140 149 167 184 184 170 166 174 185 190 183 154 123 120 125 134 140 143 147 150 150 151 154 154 154 156 156 156 157 160 161 158 157 158 157 153 148 144 139 134 131 124 112 102 92 83 77 71 69 70 67 63 59 54 45 40 36 39 50 49 42 40 40 43 50 56 55 52 52 48 44 40 33 30 28 28
236 224 227 233 221 254 112 157 176 178 172 208 180 145 179 207 200 183 152 124 135 150 154 167 180 182 181 174 180 191 183 120 94 105 122 131 138 142 142 145 150 151 151 154 154 154 155 154 153 155 160 163 165 165 163 159 155 153 146 141 139 133 122 108 99 91 83 80 78 77 78 75 71 66 54 42 39 41 47 53 47 42 43 44 49 57 59 53 49 50 47 43 39 33 32 31 32
270 236 207 234 234 219 110 172 178 176 179 177 151 121 64 247 224 116 81 107 138 152 157 171 183 182 182 183 185 182 153 111 110 123 131 137 141 143 142 144 148 150 152 154 154 154 155 154 154 155 155 156 161 163 158 149 149 152 148 143 141 131 121 111 102 94 86 87 88 84 79 74 71 65 51 41 41 47 53 52 46 46 50 51 55 59 58 52 49 47 44 43 39 32 30 30 34
279 258 220 221 229 208 188 166 157 160 193 86 111 87 5 254 213 120 90 118 140 145 159 180 201 191 181 188 185 148 125 128 129 133 138 141 142 143 145 148 149 150 153 157 157 156 154 152 154 153 147 145 148 150 147 143 144 147 143 136 133 127 123 120 111 99 92 100 99 86 76 71 66 56 45 42 48 55 56 50 47 51 55 56 58 58 56 53 52 48 45 43 40 36 32 31 32
276 263 236 220 218 223 185 138 139 143 322 157 127 110 284 254 213 148 120 134 147 161 175 185 210 206 189 194 179 123 118 134 133 139 144 142 144 145 146 149 150 150 153 159 160 159 154 150 151 149 143 142 142 143 146 144 143 145 141 134 129 125 122 125 122 109 102 112 109 90 77 71 61 49 44 50 58 59 54 48 48 52 55 58 57 55 53 53 53 51 47 43 42 42 41 37 29
266 252 239 226 219 224 160 138 151 161 204 201 164 151 226 250 224 166 143 149 160 183 195 193 205 206 199 199 179 137 133 137 136 144 146 146 148 147 146 147 149 149 151 155 157 156 153 149 147 145 143 142 141 145 151 150 147 146 143 136 129 122 118 120 117 108 106 111 107 90 80 71 58 51 53 61 62 57 54 51 51 53 54 57 57 55 55 54 53 51 47 43 43 45 47 42 32
251 259 255 320 249 240 172 144 165 173 145 180 177 145 102 208 239 175 140 146 167 194 206 207 208 202 200 202 185 155 148 149 147 150 152 151 149 146 145 145 147 149 149 149 149 150 150 146 145 145 143 141 139 141 147 150 147 141 138 132 122 117 118 118 114 107 106 106 98 86 78 67 60 61 63 63 59 55 56 56 56 56 53 53 57 59 57 54 51 49 46 44 46 50 50 45 39
251 263 243 191 217 239 277 112 203 148 104 163 209 146 86 237 275 103 136 152 188 207 207 209 209 200 196 198 190 163 148 155 154 153 154 148 143 141 141 141 144 149 149 147 146 147 147 144 144 143 139 137 136 136 136 139 140 135 133 129 120 115 118 119 115 109 106 102 93 82 71 62 64 69 67 63 60 59 61 60 59 57 51 52 60 59 53 49 45 42 42 44 46 52 53 50 43
259 274 259 220 158 144 80 94 204 89 99 194 213 174 113 258 277 197 160 175 204 215 210 210 210 200 191 194 190 162 144 154 153 146 142 136 135 136 136 137 141 145 148 149 147 145 145 143 142 139 135 135 135 136 134 131 133 132 131 130 122 119 121 118 113 109 107 99 87 73 63 64 71 71 70 71 70 68 65 59 58 55 49 54 61 56 47 42 40 40 42 45 47 51 55 52 42
256 345 335 346 9 43 63 88 95 81 297 242 215 181 139 175 253 208 188 197 204 207 210 213 211 201 192 195 189 163 148 151 144 132 128 128 131 133 133 134 137 142 146 148 147 144 143 141 139 135 134 135 133 134 131 127 128 129 130 132 126 123 122 117 111 107 103 94 81 72 73 78 78 75 77 80 76 73 66 54 48 46 49 60 63 54 45 41 42 47 49 51 51 53 55 50 42
115 54 41 16 346 359 21 9 38 92 244 263 224 177 146 166 241 218 213 224 207 192 203 208 201 197 194 191 181 160 149 148 141 134 131 130 132 134 133 133 135 139 143 145 146 143 141 140 139 134 133 135 134 132 129 126 125 123 125 129 125 122 120 115 111 106 101 93 84 85 90 88 84 80 80 81 79 75 65 49 40 43 56 67 66 54 46 44 49 54 57 55 53 56 56 49 43
86 79 62 57 354 346 6 322 321 154 241 263 195 146 165 225 241 214 211 228 221 196 204 202 191 190 187 180 169 152 147 150 143 138 140 139 139 139 137 135 136 139 141 144 144 142 139 139 138 134 131 134 133 130 127 125 123 121 122 124 121 119 117 114 110 107 103 94 92 101 101 90 83 77 78 82 80 73 63 49 46 58 69 72 69 57 51 53 55 56 57 55 53 55 53 46 43
159 149 106 103 101 32 307 281 290 242 264 276 175 136 195 279 268 213 201 214 219 205 206 196 183 180 175 169 156 144 148 149 144 142 144 145 145 143 139 138 138 140 143 144 142 141 138 136 136 133 129 131 131 128 126 122 120 119 120 122 122 119 116 114 111 109 102 94 104 113 101 76 67 70 82 85 77 70 65 53 54 67 72 70 70 62 56 59 61 57 56 55 53 52 49 41 38
207 169 123 136 149 155 219 231 224 232 266 291 328 133 182 213 260 232 198 208 217 200 194 165 141 150 152 148 139 140 145 144 144 144 143 145 145 143 141 139 141 143 144 142 139 139 136 134 135 131 128 129 128 127 125 122 120 120 121 123 122 119 115 112 112 109 102 103 113 104 78 73 84 88 89 84 75 73 70 59 58 66 69 66 68 66 60 59 62 61 58 57 58 55 50 45 41
244 136 108 179 184 167 210 212 193 184 271 300 328 176 220 204 275 294 158 170 144 108 136 112 109 126 135 136 137 138 142 144 146 143 141 143 144 144 143 142 144 144 142 139 139 139 136 133 133 131 130 128 127 127 127 128 128 126 126 125 122 119 115 113 111 108 107 113 107 83 75 89 99 95 90 86 81 77 72 62 57 62 66 65 68 67 58 55 60 65 59 58 63 62 55 51 50
253 120 178 229 173 146 160 269 246 126 114 280 241 143 290 325 323 343 70 81 38 50 83 99 116 128 131 137 138 136 141 145 145 142 141 142 144 147 146 145 146 142 138 139 141 140 137 135 133 130 129 126 124 124 125 131 133 129 127 126 124 120 117 114 112 109 112 112 99 82 85 94 99 97 92 89 84 78 74 64 56 61 68 68 72 70 58 52 56 62 59 57 64 63 55 54 53
128 179 215 227 76 96 113 135 324 39 224 272 327 138 212 136 278 333 84 95 60 55 76 95 109 120 127 132 131 134 140 141 140 139 139 142 146 148 147 146 142 135 134 139 140 139 137 136 134 132 130 127 125 124 123 126 128 127 126 125 122 118 116 113 108 109 115 110 96 90 93 94 98 97 87 80 77 76 76 68 59 63 73 74 72 71 64 54 54 61 60 56 63 62 54 55 55
140 198 196 144 91 40 64 139 139 183 225 274 346 343 198 176 218 206 151 145 128 102 106 116 123 132 135 133 133 136 137 138 141 140 141 145 146 147 146 142 135 133 137 140 139 139 137 134 134 134 132 130 128 127 125 124 124 125 123 120 116 113 114 112 106 111 118 111 100 99 98 98 98 91 77 71 78 78 75 72 63 62 73 78 69 67 65 54 50 51 45 42 54 58 53 58 58
347 335 331 121 146 161 198 182 157 186 217 185 6 331 251 221 226 205 181 160 143 140 142 142 148 151 148 144 143 142 141 143 144 143 146 146 145 146 145 140 137 140 143 144 142 140 137 135 135 135 132 131 129 128 127 125 125 126 122 117 113 112 115 112 108 115 115 106 107 107 106 106 103 97 88 81 84 84 76 74 67 59 64 72 69 62 54 48 43 36 37 41 44 44 51 64 62
292 315 289 261 191 149 196 223 142 150 180 169 153 213 262 250 220 211 187 158 154 159 156 156 158 152 150 149 145 143 143 142 143 145 145 143 143 144 143 141 142 144 145 145 145 143 139 138 138 137 135 134 133 132 129 124 122 127 126 121 117 115 118 117 114 118 111 105 113 117 113 111 111 112 103 88 83 80 70 69 70 59 57 63 68 60 48 49 53 50 51 53 46 41 53 72 68
183 213 225 214 192 133 162 271 295 143 180 175 151 185 264 266 238 241 188 163 163 161 148 142 137 135 140 145 142 141 141 141 144 145 142 143 144 143 142 142 144 145 146 146 146 144 142 141 140 140 138 136 135 134 131 126 121 122 126 127 124 118 121 126 127 127 121 118 126 129 119 111 119 124 112 99 89 74 64 64 68 64 58 59 63 59 50 55 61 58 54 53 51 51 60 79 76